Weather Roundup
Issued by NWS

Home | Current Version | Previous Version | Text Only | Print | Product List | Glossary On
Versions: 1 2 3 4 5 6 7 8 9 10 11 12 13 14 15 16 17 18 19 20 21 22 23 24 25 26 27 28 29 30 31 32 33 34 35 36 37 38 39 40 41 42 43 44 45 46 47 48 49 50
344
NZUS93 KARX 230510
HRRWXR

CURRENT HOURLY OBSERVATIONS ACROSS
MUCH OF THE UPPER MISSISSIPPI VALLEY
NATIONAL WEATHER SERVICE LA CROSSE WI
1100 PM CST WED FEB 22 2017


...SOUTHEAST MINNESOTA...


CITY           SKY/WX    TMP DP  RH WIND       PRES   REMARKS
ROCHESTER      CLOUDY    42  40  92 NW20      29.69R
ROCHESTER/MAYO CLOUDY    43  40  86 NW29G35   29.68R
WINONA         PTCLDY    48  43  81 NW10      29.66R
AUSTIN         CLOUDY    43  37  81 NW16G23   29.72R
ALBERT LEA     CLOUDY    41  39  93 NW13G22   29.74R
DODGE CENTER   PTCLDY    43  39  87 NW21G30   29.71R
PRESTON        MOCLDY    42  39  89 NW18G24   29.69R
OWATONNA       CLOUDY    41  37  87 NW15      29.74R
FARIBAULT      CLOUDY    41  37  87 W8        29.75R
$$

...ELSEWHERE IN MINNESOTA...


CITY           SKY/WX    TMP DP  RH WIND       PRES   REMARKS
MINNEAPOLIS    CLOUDY    39  32  76 NW18      29.75R WCI  30
INTNL FALLS    CLOUDY    26  21  81 NW8       29.82S WCI  18
DULUTH         FLURRIES  33  31  92 N14G21    29.73R WCI  23
RED WING       CLOUDY    43  36  75 NW10G16   29.71R
REDWOOD FALLS  CLOUDY    37  32  82 NW8G17    29.84R WCI  31
MANKATO          N/A     39  36  89 NW16      29.78R WCI  30
WORTHINGTON    CLOUDY    34  32  92 NW14      29.86R WCI  25
FAIRMONT       CLOUDY    37  35  92 NW17      29.81R WCI  27
$$

...SOUTHWEST WISCONSIN...


CITY           SKY/WX    TMP DP  RH WIND       PRES   REMARKS
LA CROSSE      CLEAR     48  41  76 NW7       29.63R
PRAIRIE DU CHI CLEAR     48  42  79 CALM      29.66R
BOSCOBEL       CLEAR     50  43  77 S6        29.63R
LONE ROCK      CLEAR     48  42  80 W7        29.62R
PLATTEVILLE    PTCLDY    46  44  90 W9        29.64R
FORT MC COY    CLEAR     40  39  99 SW5       29.62R
CAMP DOUGLAS   CLEAR     39  37  89 W3        29.59R
MAUSTON-NEW LI CLEAR     51  43  76 W8        29.59R
VIROQUA        FAIR      47  44  88 W10       29.63R
WIS DELLS      CLEAR     48  40  72 W5        29.59S
$$

...ELSEWHERE IN WISCONSIN...


CITY           SKY/WX    TMP DP  RH WIND       PRES   REMARKS
MILWAUKEE      CLEAR     59  52  77 SW16G26   29.55S
MADISON        CLEAR     53  43  68 W6        29.59R
GREEN BAY      CLEAR     40  40 100 NW5       29.53R
EAU CLAIRE     CLOUDY    45  39  79 NW13      29.64R
BLACK RVR FLS  FAIR      48  41  77 E12       29.60R
MEDFORD        MOCLDY    35  34  99 CALM      29.55S FOG
WAUSAU         CLOUDY    37  35  92 CALM      29.53F
WIS RAPIDS     CLEAR     34  33  96 SW3       29.58R
MARSHFIELD     PTCLDY    40  35  83 W8        29.55S WCI  34
RICE LAKE      CLOUDY    37  35  90 N10       29.69R WCI  30
$$

...NORTHEAST IOWA...


CITY           SKY/WX    TMP DP  RH WIND       PRES   REMARKS
WATERLOO       CLEAR     45  40  82 NW10      29.73R
DUBUQUE        CLEAR     50  43  77 W13       29.66R
DECORAH        PTCLDY    46  43  87 VRB7G15   29.66R
MASON CITY     CLOUDY    41  38  89 NW17      29.77R
CHARLES CITY   CLOUDY    45  45 100 NW21      29.73R
OELWEIN        CLEAR     45  45 100 NW10      29.71R
$$

...ELSEWHERE IN IOWA...


CITY           SKY/WX    TMP DP  RH WIND       PRES   REMARKS
DES MOINES     CLEAR     51  43  74 N10       29.77R
IOWA CITY      CLEAR     46  39  76 W5        29.71R
FORT DODGE     MOCLDY    41  34  75 N12       29.81R
MARSHALLTOWN   CLEAR     43  39  86 NW8       29.75R
CEDAR RAPIDS   PTCLDY    49  45  86 NW16      29.69R
$$

...NORTHERN ILLINOIS...


CITY           SKY/WX    TMP DP  RH WIND       PRES   REMARKS
CHICAGO-OHARE  CLEAR     59  52  77 SW10G21   29.61S
CHICAGO-MIDWAY CLEAR     60  53  77 SW16G24   29.62S
MOLINE         CLEAR    N/A N/A N/A W5        29.67R
ROCKFORD       CLEAR     57  50  77 W15       29.64R
PEORIA         CLEAR     50  50 100 SW7       29.69R FOG
$$

NOTE: "FAIR" INDICATES FEW OR NO CLOUDS BELOW 12,000 FEET WITH NO
SIGNIFICANT WEATHER AND/OR OBSTRUCTIONS TO VISIBILITY. WIND
SPEEDS ARE IN MILES-PER-HOUR.




USA.gov is the U.S. government's official web portal to all federal, state and local government web resources and services.